Location: ?????
(31.8092°N, 35.2590°E)
Time: 03:48:26
(UTC+00:00)

Lacrosse 5 - Pass Details

Date: 29 October 2021
Orbit: 714 x 724 km, 57.0° (Epoch: 28 August)

Event Time Altitude Azimuth Distance (km) Brightness Sun altitude
Rises 16:18:36 0° 222° (SW) 3,121 5.9 -18.9°
Reaches altitude 10° 16:20:59 10° 225° (SW) 2,204 5.1 -19.4°
Maximum altitude 16:26:02 70° 309° (NW) 768 2.1 -20.5°
Enters shadow 16:28:53 26° 27° (NNE) 1,396 3.1 -21.1°
